[[{"header":{"parameterUnit":"m.s-1","parameterCategory":1,"la1":30.2991,"la2":30.254,"lo1":-89.0895,"lo2":-89.0444,"dy":0.0017,"dx":0.0017,"nx":28,"ny":28,"refTime":"2023-08-10T03:00:00:Z","depth":0,"parameterNumber":2,"parameterNumberName":"U-component_of_WINDS"},"data":[0,0,0,0,0,0,0,0,0,0,0,0,0,0,0,0,0,0,0,0,0,0,0,0,0,0,0,0,0,0,0,0,0,0,0,0,0,0,0,0,0,0,0,0,0,0,0,0,0,0,0,0,0,0,0,0,0,0,4.9241,4.9242,0,4.929,4.9291,4.9291,4.9252,4.9251,4.9249,4.9247,4.9302,4.9305,4.9308,0,0,0,0,0,0,0,0,0,0,0,0,0,4.9117,4.912,4.9241,4.9242,4.9242,4.929,4.9291,4.9292,4.9253,4.9251,4.9249,4.9247,4.9301,4.9305,4.9308,0,0,0,0,0,0,0,0,0,0,0,0,0,4.9169,4.912,4.9241,4.9228,4.9228,4.929,4.9291,4.9292,4.9253,4.9251,4.9248,4.9246,4.93,4.9304,4.9309,4.9387,0,0,4.9323,4.9324,0,0,0,0,0,0,0,0,4.9166,4.9174,4.923,4.9229,4.9229,4.9262,4.9267,4.9324,4.9254,4.9244,4.9247,4.9244,4.9291,4.9296,4.9311,4.939,4.9392,4.9323,4.9326,4.9328,4.9329,0,0,0,0,0,0,0,4.9163,4.9171,4.9261,4.9231,4.923,4.9222,4.9226,4.9278,4.9281,4.9244,4.9242,4.9248,4.929,4.9307,4.9312,4.9393,4.9323,4.9327,4.933,4.9331,4.9539,4.9541,0,0,0,0,0,0,4.916,4.9169,4.9259,4.9262,4.9191,4.9226,4.9231,4.9254,4.928,4.9282,4.925,4.9246,4.93,4.9307,4.9314,4.9407,4.9328,4.9332,4.9334,4.9536,4.9539,4.9542,0,0,0,0,0,0,4.9157,4.9168,4.9257,4.9215,4.9225,4.9231,4.9257,4.9257,4.9273,4.9284,4.9285,4.9266,4.9299,4.9308,4.9369,4.9409,4.9334,4.9338,4.9533,4.9537,4.9541,4.9595,0,0,0,0,0,0,4.9154,4.9168,4.9196,4.9216,4.9228,4.931,4.926,4.9259,4.928,4.9275,4.93,4.9301,4.9297,4.9362,4.9373,4.9413,4.9341,4.9529,4.9534,4.9539,4.9589,4.96,4.9609,0,0,0,0,0,4.915,4.921,4.9198,4.9209,4.9264,4.9312,4.932,4.9313,4.9284,4.9313,4.9321,4.93,4.9403,4.9369,4.9381,4.9423,4.9526,4.9533,4.9539,4.9585,4.9598,4.9609,0,0,0,0,0,0,4.9197,4.9213,4.9199,4.9268,4.9289,4.9306,4.9343,4.9327,4.9358,4.9352,4.9344,4.9349,4.9414,4.9425,4.9387,4.9501,4.946,4.9469,4.9491,4.9503,4.9513,4.9509,4.9345,0,0,0,0,0,4.9215,4.9252,4.9264,4.9324,4.9335,4.9337,4.9358,4.9351,4.9373,4.9382,4.9394,4.9418,4.9455,4.948,4.9515,4.9591,4.9596,4.9626,4.9636,4.9644,4.9652,4.9693,4.9707,4.9563,4.9563,4.9563,0,0,4.9253,4.9267,4.9291,4.9334,4.9349,4.9389,4.9345,4.9389,4.9419,4.939,4.9448,4.9458,4.9483,4.9552,4.9583,4.9563,4.9693,4.9652,4.9659,4.9662,4.9701,4.9715,4.9727,4.9567,4.9566,4.9566,0,0,4.9343,4.9357,4.9408,4.9424,4.9448,4.9449,4.9461,4.9481,4.9486,4.9544,4.9523,4.9559,4.9624,4.9643,4.9661,4.9759,4.9741,4.9771,4.9823,4.9863,4.9875,4.9885,4.9919,4.9932,4.9779,4.9779,4.9779,0,4.9388,4.9446,4.9436,4.9481,4.9501,4.9476,4.9528,4.9545,4.958,4.9595,4.9572,4.9652,4.9668,4.9741,4.9764,4.978,4.9795,4.9768,4.9874,4.9883,4.9893,4.9926,4.9939,4.9782,4.9782,4.9782,4.9781,0,4.95,4.954,4.9579,4.9611,4.9636,4.9684,4.9683,4.971,4.9701,4.9705,4.9765,4.9783,4.9821,4.9838,4.983,4.991,4.9897,4.9874,4.9833,4.991,4.9941,4.9953,4.9787,4.9786,4.9785,4.9784,0,0,4.962,4.9647,4.9661,4.9676,4.97,4.9732,4.978,4.9816,4.9839,4.9864,4.9905,4.996,4.9939,4.996,4.9954,4.999,5.0066,4.9962,4.9963,4.998,5.0155,5.0172,5.0187,5.0055,5.0057,5.0059,5.0153,0,4.971,4.9792,4.9786,4.9863,4.9901,4.9878,4.992,4.9941,4.9946,4.998,4.9986,5.0025,4.9994,5.0007,5.0041,5.0049,5.0101,5.0043,5.0093,5.0095,5.0086,5.0203,5.022,5.0308,5.0165,5.0167,5.0169,0,4.9827,4.9854,4.9936,4.9955,4.9971,5.0008,5.0041,5.0073,5.0097,5.0098,5.0121,5.011,5.016,5.0118,5.0187,5.0148,5.0168,5.0176,5.0179,5.0183,5.0136,5.0209,5.0336,5.0349,5.0188,5.0186,5.0185,0,4.9906,4.9964,5.002,5.0033,5.0057,5.0084,5.0096,5.0116,5.0139,5.0168,5.0182,5.0218,5.0237,5.0265,5.0264,5.0234,5.0334,5.0293,5.0337,5.0338,5.0359,5.0357,5.049,5.0374,5.0373,5.0373,5.0373,0,5.0007,5.0058,5.0055,5.009,5.0146,5.0139,5.0196,5.0204,5.0223,5.026,5.0243,5.0278,5.0275,5.031,5.031,5.0367,5.0377,5.038,5.0379,5.0381,5.038,5.0393,5.0387,5.0377,5.0376,5.0375,5.0375,0,5.0104,5.0105,5.0164,5.0182,5.0188,5.0229,5.0244,5.0277,5.0282,5.0328,5.0339,5.0346,5.0387,5.0389,5.0437,5.0437,5.0506,5.0499,5.0498,5.0496,5.0541,5.0536,5.0685,5.0704,5.0577,5.0578,5.0579,0,5.0168,5.0206,5.0228,5.0251,5.0264,5.0301,5.0323,5.0318,5.0342,5.0372,5.0402,5.0441,5.0472,5.0539,5.055,5.0586,5.058,5.063,5.0585,5.0586,5.058,5.0577,5.0581,5.0638,5.0639,5.0641,5.0641,0,5.0282,5.0281,5.0313,5.0345,5.0372,5.0398,5.0422,5.0442,5.044,5.0468,5.0509,5.0533,5.0582,5.0621,5.0657,5.0671,5.0656,5.0655,5.0668,5.0669,5.0667,5.0668,5.052,5.0652,5.0651,5.065,5.0649,5.0649,5.0364,5.0397,5.0417,5.0454,5.0471,5.0494,5.0526,5.0534,5.0568,5.0605,5.0601,5.0647,5.067,5.0717,5.0733,5.077,5.0753,5.0771,5.0775,5.0779,5.0783,5.0661,5.0776,5.0776,5.0776,5.0776,5.0775,0,5.0477,5.0489,5.0522,5.0556,5.0585,5.0568,5.0593,5.0619,5.0659,5.0681,5.0712,5.076,5.0798,5.0811,5.0849,5.0876,5.087,5.0886,5.0883,5.0887,5.0797,5.0782,5.089,5.089,5.089,5.089,5.089,5.089,5.0538,5.0593,5.0594,5.0657,5.0669,5.0713,5.0729,5.075,5.0768,5.0821,5.0852,5.086,5.0879,5.0918,5.0953,5.0956,5.0971,5.0989,5.0989,5.0905,5.0893,5.0882,5.0868,5.0992,5.0992,5.1076,5.1077,5.1077]},{"header":{"parameterUnit":"m.s-1","parameterCategory":1,"la1":30.2991,"la2":30.254,"lo1":-89.0895,"lo2":-89.0444,"dy":0.0017,"dx":0.0017,"nx":28,"ny":28,"refTime":"2023-08-10T03:00:00:Z","depth":0,"parameterNumber":3,"parameterNumberName":"V-component_of_WINDS"},"data":[0,0,0,0,0,0,0,0,0,0,0,0,0,0,0,0,0,0,0,0,0,0,0,0,0,0,0,0,0,0,0,0,0,0,0,0,0,0,0,0,0,0,0,0,0,0,0,0,0,0,0,0,0,0,0,0,0,0,2.4488,2.449,0,2.4633,2.4634,2.4636,2.4692,2.4692,2.4691,2.4691,2.4839,2.4843,2.4847,0,0,0,0,0,0,0,0,0,0,0,0,0,2.426,2.4263,2.4488,2.449,2.4492,2.4633,2.4635,2.4637,2.4692,2.4692,2.4691,2.4691,2.4838,2.4843,2.4848,0,0,0,0,0,0,0,0,0,0,0,0,0,2.4377,2.4265,2.4488,2.4536,2.4542,2.4632,2.4635,2.4637,2.4692,2.4692,2.4691,2.469,2.4836,2.4842,2.4849,2.4901,0,0,2.4868,2.4871,0,0,0,0,0,0,0,0,2.437,2.4385,2.4527,2.4533,2.454,2.4644,2.4608,2.4726,2.4692,2.4635,2.4691,2.469,2.4775,2.4786,2.4815,2.4908,2.4914,2.4869,2.4873,2.4876,2.4878,0,0,0,0,0,0,0,2.4362,2.4379,2.4545,2.4529,2.4537,2.4551,2.4567,2.4631,2.4707,2.464,2.4645,2.4661,2.4778,2.4808,2.4818,2.4916,2.4869,2.4875,2.4879,2.4881,2.5059,2.506,0,0,0,0,0,0,2.4346,2.4372,2.4541,2.455,2.4452,2.4555,2.4573,2.4611,2.4706,2.472,2.4661,2.4663,2.4797,2.4811,2.4824,2.4891,2.4876,2.4882,2.4885,2.5058,2.5059,2.506,0,0,0,0,0,0,2.4341,2.436,2.4535,2.4462,2.4486,2.456,2.4602,2.4614,2.4645,2.4722,2.4736,2.4678,2.4797,2.4815,2.4881,2.4897,2.4885,2.4891,2.5057,2.5059,2.506,2.5025,0,0,0,0,0,0,2.4334,2.4358,2.4379,2.4462,2.4489,2.459,2.4603,2.4617,2.4656,2.4659,2.4742,2.4755,2.4798,2.4871,2.4888,2.4905,2.4896,2.5056,2.5058,2.5059,2.5025,2.5025,2.5025,0,0,0,0,0,2.4326,2.4364,2.438,2.44,2.4517,2.4591,2.4606,2.4655,2.4657,2.4678,2.4728,2.4752,2.4892,2.4877,2.4896,2.4916,2.5055,2.5057,2.5059,2.5025,2.5025,2.5025,0,0,0,0,0,0,2.428,2.4375,2.4394,2.4461,2.4517,2.46,2.4628,2.4654,2.4711,2.4712,2.4771,2.4789,2.485,2.489,2.4872,2.4972,2.4976,2.4981,2.4943,2.4944,2.4943,2.4932,2.4901,0,0,0,0,0,2.4278,2.433,2.4411,2.4461,2.4489,2.4553,2.4587,2.462,2.4681,2.4706,2.476,2.4818,2.4875,2.4912,2.4969,2.5031,2.505,2.5054,2.5054,2.5054,2.5058,2.5093,2.5096,2.5066,2.5066,2.5066,0,0,2.4274,2.4332,2.4362,2.4454,2.4501,2.4554,2.4573,2.4628,2.4667,2.4714,2.478,2.4822,2.4891,2.4955,2.4986,2.499,2.507,2.5056,2.5055,2.506,2.5095,2.5098,2.51,2.5068,2.5067,2.5067,0,0,2.4293,2.4343,2.439,2.4437,2.4509,2.4552,2.4563,2.4642,2.4672,2.4739,2.4774,2.4822,2.4919,2.4967,2.5003,2.5039,2.5064,2.5056,2.5055,2.5089,2.5091,2.5094,2.5106,2.511,2.506,2.506,2.506,0,2.4279,2.4359,2.4411,2.4464,2.4503,2.4547,2.4595,2.4639,2.4725,2.4751,2.4754,2.4877,2.4926,2.5002,2.5011,2.5039,2.5053,2.5047,2.5087,2.509,2.5093,2.5105,2.511,2.5059,2.5059,2.5059,2.5059,0,2.4338,2.4393,2.4423,2.4505,2.4547,2.4597,2.4656,2.4693,2.4722,2.4764,2.4831,2.4892,2.4962,2.4982,2.5012,2.5062,2.5062,2.5075,2.5081,2.5093,2.5106,2.5111,2.5057,2.5057,2.5058,2.5058,0,0,2.4333,2.4443,2.4452,2.449,2.4572,2.4616,2.4667,2.4735,2.4765,2.4823,2.4868,2.4949,2.4961,2.5003,2.5038,2.5067,2.5091,2.5077,2.508,2.5077,2.515,2.5139,2.5144,2.5108,2.5109,2.511,2.5144,0,2.4362,2.4457,2.4505,2.4579,2.463,2.4672,2.4717,2.4772,2.4813,2.4862,2.4908,2.4964,2.4976,2.5002,2.5033,2.5082,2.5106,2.508,2.515,2.5152,2.5131,2.515,2.5139,2.5168,2.5149,2.515,2.5151,0,2.441,2.4467,2.4546,2.4621,2.4644,2.4684,2.475,2.4796,2.4859,2.4887,2.4933,2.4967,2.5023,2.5024,2.5101,2.5082,2.5113,2.5141,2.5144,2.5152,2.5151,2.5158,2.5179,2.5183,2.5159,2.5158,2.5158,0,2.4397,2.4494,2.4553,2.4584,2.4674,2.4701,2.4739,2.4802,2.4839,2.4897,2.4921,2.4985,2.5019,2.5067,2.5117,2.5113,2.5189,2.5195,2.5213,2.5212,2.5227,2.5225,2.5252,2.5248,2.5248,2.5248,2.5248,0,2.4425,2.4471,2.4549,2.4585,2.4638,2.4693,2.4743,2.4785,2.484,2.4886,2.4927,2.4968,2.5032,2.5081,2.5121,2.5178,2.5194,2.5217,2.5227,2.5213,2.521,2.5235,2.5234,2.5249,2.5249,2.5248,2.5248,0,2.4419,2.4474,2.4541,2.462,2.4641,2.4677,2.4744,2.4781,2.4824,2.488,2.4897,2.4964,2.5024,2.5078,2.5159,2.5185,2.5243,2.5256,2.5222,2.5227,2.5243,2.524,2.5286,2.5294,2.5284,2.5284,2.5284,0,2.4433,2.447,2.4553,2.4586,2.4623,2.4676,2.4715,2.477,2.4808,2.4882,2.491,2.4973,2.5026,2.512,2.5176,2.5237,2.5251,2.5263,2.5261,2.5246,2.5251,2.5248,2.5252,2.5262,2.5262,2.5262,2.5262,0,2.4452,2.4477,2.453,2.4593,2.4638,2.469,2.4743,2.4768,2.4833,2.4874,2.4935,2.4977,2.5058,2.512,2.5188,2.5227,2.5255,2.5262,2.527,2.5256,2.5234,2.5246,2.522,2.5261,2.5261,2.5261,2.5261,2.5261,2.4457,2.4491,2.4554,2.4612,2.4658,2.4707,2.4745,2.4792,2.4845,2.4915,2.4945,2.5007,2.5069,2.5162,2.5202,2.5252,2.5257,2.5268,2.5271,2.5273,2.527,2.5227,2.5264,2.5264,2.5264,2.5264,2.5265,0,2.4477,2.4519,2.4572,2.4646,2.4691,2.4714,2.4774,2.481,2.4865,2.492,2.4972,2.5042,2.5103,2.5163,2.5226,2.5254,2.5269,2.5269,2.5267,2.5276,2.5261,2.5248,2.5256,2.5256,2.5256,2.5256,2.5256,2.5256,2.4492,2.4551,2.4583,2.4665,2.4708,2.4769,2.4802,2.4847,2.4891,2.4968,2.5018,2.5057,2.5114,2.5182,2.5238,2.5254,2.5275,2.5272,2.5292,2.5277,2.5277,2.5277,2.5265,2.5276,2.5276,2.5302,2.5302,2.5302]}]]